Location: Beekmeers
(50.8953°N, 3.6968°E)
Time: 14:50:21
(UTC+00:00)

Cosmos 381 Rocket - Pass Details

Date: 23 May 2024
Orbit: 955 x 995 km, 74.0° (Epoch: 19 June)

Event Time Altitude Azimuth Distance (km) Brightness Sun altitude
Rises 00:28:48 0° 334° (NNW) 3,725 8.4 -17.7°
Reaches altitude 10° 00:31:22 10° 333° (NNW) 2,771 7.6 -17.6°
Maximum altitude 00:37:47 74° 250° (WSW) 1,032 4.5 -17.4°
Enters shadow 00:41:55 23° 169° (S) 1,950 5.6 -17.3°
